User: anonymous   Login
Location: Zlin
(49.2330°N, 17.6670°E)
Time: 17:24:14
(UTC+02:00)
Language:

ISS - Orbit

View from above orbital plane
View from above orbital plane
View from above satellite
View from above satellite

Ground track
Ground track

The orbit data is extracted from the following two-line orbital elements,

1 25544U 98067A   14295.21077742  .00020949  00000-0  36465-3 0  2782
2 25544 051.6463 189.9374 0002352 285.8109 159.7410 15.50723425911038
Epoch (UTC): 22 October 2014 05:03:31
Eccentricity: 0.0002352
inclination: 51.6463°
perigee height: 413 km
apogee height: 416 km
right ascension of ascending node: 189.9374°
argument of perigee: 285.8109°
revolutions per day: 15.50723425
mean anomaly at epoch: 159.7410°
orbit number at epoch: 91103

The dashed part of the orbit path shows where the satellite is in the earth's shadow,  

DLR